Regional Weather Roundup
Issued by NWS

Home | Current Version | Previous Version | Text Only | Print | Product List | Glossary On
Versions: 1 2 3 4 5 6 7 8 9 10 11 12 13 14 15 16 17 18 19 20 21 22 23 24 25 26 27 28 29 30 31 32 33 34 35 36 37 38 39 40 41 42 43 44 45 46 47 48 49 50
000
ASUS43 KDMX 051206
RWRIA

WEATHER ROUNDUP FOR IOWA
NATIONAL WEATHER SERVICE DES MOINES IA
600 AM CST MON DEC 05 2016

NOTE: "FAIR" INDICATES FEW OR NO CLOUDS BELOW 12,000 FEET WITH NO
SIGNIFICANT WEATHER AND/OR OBSTRUCTIONS TO VISIBILITY.

* - THESE STATIONS ARE NOT NWS STATIONS...THUS NOT UNDER NWS
QUALITY CONTROL.  THEY ALSO DO NOT REPORT WEATHER SUCH
AS PRECIPITATION OR FOG.

IAZ001>003-012>014-020>022-031>034-043>046-051300-
   NORTHWEST IOWA

CITY           SKY/WX    TMP DP  RH WIND       PRES   REMARKS
CARROLL *      CLOUDY    34  34 100 S15       29.78F WCI  24
CHEROKEE *     MOCLDY    33  32  95 S9        29.72F WCI  26
DENISON *      PTCLDY    34  30  86 S12G22    29.75S WCI  25
LE MARS *      CLOUDY    36  30  80 S15G21    29.69F WCI  26
ORANGE CITY *  CLOUDY    36  32  87 S14       29.67F WCI  27
SHELDON *      CLOUDY    34  34 100 SE20      29.65F WCI  22
SIOUX CITY     CLOUDY    38  32  79 S10       29.70F WCI  31
6HR MIN TEMP:  30; 6HR MAX TEMP:  38;

SPENCER        CLOUDY    34  31  88 S18       29.73F WCI  23
6HR MIN TEMP:  29; 6HR MAX TEMP:  34;

STORM LAKE *   CLOUDY    32  30  93 S9        29.75S WCI  24
$$

IAZ055>058-069>071-079>083-090>094-051300-
   SOUTHWEST IOWA

CITY           SKY/WX    TMP DP  RH WIND       PRES   REMARKS
ATLANTIC *     PTCLDY    34  32  93 S8        29.82F WCI  27
AUDUBON *      PTCLDY    34  30  86 S7        29.80F WCI  28
CLARINDA *       N/A     30  30 100 S6        29.86F WCI  24
COUNCIL BLFS * CLOUDY    34  32  93 SE6       29.79F WCI  29
CRESTON *      PTCLDY    30  30 100 SE9       29.86F WCI  22
HARLAN  *      PTCLDY    32  32 100 S7        29.83F WCI  26
LAMONI         FOG       29  29 100 S6        29.88F VSB 1/4 WCI  23
6HR MIN TEMP:  29; 6HR MAX TEMP:  31;

RED OAK *      CLOUDY    34  32  93 S6        29.82F WCI  29
SHENANDOAH *   CLOUDY    34  32  93 VRB5      29.84F WCI  30
$$

IAZ047>049-059>061-072>074-084-051300-
   CENTRAL IOWA

CITY           SKY/WX    TMP DP  RH WIND       PRES   REMARKS
AMES           FOG       29  29 100 SE8       29.85F VSB 3/4 WCI  21
6HR MIN TEMP:  25; 6HR MAX TEMP:  30;

ANKENY *       CLOUDY    32 N/A N/A SE6       29.88F FOG     WCI  26
BOONE *        CLOUDY    28  28 100 S9        29.83F WCI  20
CHARITON *     FOG       32  32 100 S5        29.88F VSB 1/4 WCI  27
DES MOINES     CLOUDY    33  31  92 S13       29.87F WCI  24
6HR MIN TEMP:  30; 6HR MAX TEMP:  33;

GRINNELL*      SNOW      32  32 100 S10       29.90F VSB 1/4 WCI  24
KNOXVILLE *    FOG       32  32 100 S7        29.88F VSB 1/4 WCI  26
MARSHALLTOWN   FOG       31  31 100 S13       29.87F VSB 1/2 WCI  21
6HR MIN TEMP:  28; 6HR MAX TEMP:  32;

NEWTON *       FOG       32  32 100 SE10      29.88F VSB<1/4 WCI  24
PELLA *        FOG       33  32  97 SE5       29.91F VSB 1/4 WCI  28
PERRY *          N/A     32  32 100 SE8       29.84S WCI  25
$$

IAZ004>006-015-016-023>025-035-036-051300-
   NORTH CENTRAL IOWA

CITY           SKY/WX    TMP DP  RH WIND       PRES   REMARKS
ALGONA *       CLOUDY    34  32  93 S13       29.78S WCI  25
CLARION *      CLOUDY    32  32 100 S13       29.81S WCI  22
ESTHERVILLE    CLOUDY    32  31  96 S12       29.74F WCI  23
6HR MIN TEMP:  28; 6HR MAX TEMP:  32;

FORT DODGE *   PTCLDY    34  28  80 S9        29.81S WCI  26
MASON CITY     CLOUDY    31  29  92 S9        29.82F WCI  23
6HR MIN TEMP:  26; 6HR MAX TEMP:  32;

FOREST CITY *  MOCLDY    32  32 100 SE6       29.80S WCI  26
WEBSTER CITY * PTCLDY    30  32 100 S13       29.80F WCI  20
IOWA FALLS *   FOG       31  30  96 SE10      29.84F VSB 1/2 WCI  22
$$

IAZ007>011-017>019-026>030-037>042-050>054-066-051300-
   NORTHEAST IOWA

CITY           SKY/WX    TMP DP  RH WIND       PRES   REMARKS
CEDAR RAPIDS   FOG       31  31 100 S10       29.93F VSB 1/2 WCI  22
6HR MIN TEMP:  31; 6HR MAX TEMP:  34;

CHARLES CITY * FOG       30  30 100 S10       29.84F VSB 1/2 WCI  21
CLINTON *      CLOUDY    33  31  92 SW6       29.98S FOG     WCI  28
DECORAH *      FOG       30  30 100 S8        29.86F VSB 1/4 WCI  23
DUBUQUE        SNOW      31  31 100 S15       29.93S VSB 1/2 WCI  20
6HR MIN TEMP:  31; 6HR MAX TEMP:  33; 6HR PCP: TRACE;

MONTICELLO *   FOG       32  32 100 S12       29.94S VSB 1/2 WCI  23
OELWEIN *      FOG       32  32 100 S14       29.89F VSB<1/4 WCI  22
WATERLOO       FOG       31  31 100 S10       29.88F VSB 1/2 WCI  22
6HR MIN TEMP:  29; 6HR MAX TEMP:  32;

$$

IAZ064-065-067-068-078-051300-
   EAST CENTRAL IOWA

CITY           SKY/WX    TMP DP  RH WIND       PRES   REMARKS
DAVENPORT      FOG       32  31  96 S9        29.98S VSB 3/4 WCI  24
6HR MIN TEMP:  32; 6HR MAX TEMP:  34;

IOWA CITY      FOG       32  32 100 S7        29.96F VSB 3/4 WCI  26
6HR MIN TEMP:  32; 6HR MAX TEMP:  35;

MUSCATINE *    FOG       32  32 100 S6        29.98F VSB 1   WCI  26
QUAD CITIES    CLOUDY    33  30  88 SW6       29.98F FOG     WCI  28
6HR MIN TEMP:  33; 6HR MAX TEMP:  35;

$$

IAZ062-063-075>077-085>089-095>099-051300-
   SOUTHEAST IOWA

CITY           SKY/WX    TMP DP  RH WIND       PRES   REMARKS
BURLINGTON     FOG       32  32 100 S6        29.98S VSB 1/4 WCI  26
6HR MIN TEMP:  32; 6HR MAX TEMP:  34;

FAIRFIELD *    FOG       32  32 100 SE6       29.94F VSB<1/4 WCI  26
FORT MADISON * FOG       32  32 100 CALM      29.98F VSB<1/4
KEOKUK *       FOG       32  32 100 CALM      29.97S VSB<1/4
OSKALOOSA *    SNOW      32  32  99 S9        29.92F VSB 1/4 WCI  24
CENTERVILLE *  FOG       30  30 100 SE6       29.92F VSB 1/2 WCI  24
OTTUMWA        FOG       33  31  92 S8        29.92F VSB 1/4 WCI  26
6HR MIN TEMP:  33; 6HR MAX TEMP:  35;

WASHINGTON *   FOG       32  32 100 S7        29.96F VSB<1/4 WCI  26
$$

ABBREVIATIONS USED IN REMARKS
   TC - TEMPERATURES IN CELSIUS
  WCI - WIND CHILL INDEX
   HX - HEAT INDEX
  VSB - VISIBILITY
$$




USA.gov is the U.S. government's official web portal to all federal, state and local government web resources and services.